Joint Base Elmendorf-Richardson, AK

5:35 PM AKST on February 24, 2017 (GMT -0900)
Elmendorf Air Force Base

Weather History for PAED - February, 2014

Change the Weather History Date:

Saturday, February 8, 2014

  Actual Average Record
Temperature  
Mean Temperature 15 °F -  
Max Temperature 22 °F 24 °F 48 °F (1968)
Min Temperature 4 °F 11 °F -23 °F (1999)
Degree Days  
Heating Degree Days 50    
Moisture  
Dew Point 4 °F    
Average Humidity 58    
Maximum Humidity 74    
Minimum Humidity 49    
Precipitation  
Precipitation 0.00 in - - ()
Sea Level Pressure  
Sea Level Pressure 30.21 in    
Wind  
Wind Speed 6 mph (North)    
Max Wind Speed 9 mph    
Max Gust Speed -    
Visibility 10 miles    
Events      
Averages and records for this station are not official NWS values.
T = Trace of Precipitation, MM = Missing Value Source: NWS Daily Summary

Daily Weather History Graph

Daily Weather History Graph

Search for Another Location

Airport or City:

Trip Planner

Search our weather history database for the weather conditions in past years. The results will help you decide how hot, cold, wet, or windy it might be!

Date:

Astronomy

Feb. 08, 2014 Rise Set
Actual Time 9:00 AM AKST 5:26 PM AKST
Civil Twilight 8:13 AM AKST 6:14 PM AKST
Nautical Twilight 7:21 AM AKST 7:06 PM AKST
Astronomical Twilight 6:31 AM AKST 7:56 PM AKST
Moon 11:57 AM AKST (2/8) 4:51 AM AKST (2/8)
Length of Visible Light 10h 01m
Length of Day
8h 26m
Waxing Gibbous, 70% of the Moon is Illuminated
Feb 8
Waxing Gibbous
Feb 14
Full
Feb 22
Last Quarter
Feb 28
New
Mar 8
First Quarter

Hourly Weather History & Observations

Time (AKST) Temp. Windchill Dew Point Humidity Pressure Visibility Wind Dir Wind Speed Gust Speed Precip Events Conditions
12:58 AM 22.1 °F 12.0 °F 6.6 °F 51% 30.13 in 10.0 mi North 9.2 mph - N/A   Partly Cloudy
1:58 AM 21.6 °F 12.1 °F 5.7 °F 51% 30.15 in 10.0 mi North 8.1 mph - N/A   Clear
2:58 AM 20.8 °F 11.2 °F 5.5 °F 52% 30.16 in 10.0 mi NNE 8.1 mph - N/A   Clear
3:58 AM 19.8 °F 9.9 °F 6.1 °F 55% 30.17 in 10.0 mi North 8.1 mph - N/A   Scattered Clouds
4:58 AM 18.3 °F 11.5 °F 5.5 °F 57% 30.18 in 10.0 mi NNE 4.6 mph - N/A   Clear
5:58 AM 18.0 °F 7.7 °F 5.5 °F 58% 30.18 in 10.0 mi NNE 8.1 mph - N/A   Clear
6:58 AM 16.7 °F 9.6 °F 5.2 °F 61% 30.20 in 10.0 mi NE 4.6 mph - N/A   Clear
7:58 AM 16.2 °F 9.0 °F 5.4 °F 62% 30.21 in 10.0 mi North 4.6 mph - N/A   Clear
8:58 AM 15.8 °F 7.2 °F 3.9 °F 60% 30.23 in 10.0 mi NNE 5.8 mph - N/A   Clear
9:58 AM 16.7 °F 9.6 °F 4.5 °F 59% 30.25 in 10.0 mi ENE 4.6 mph - N/A   Clear
10:58 AM 19.0 °F 10.0 °F 5.2 °F 55% 30.25 in 10.0 mi West 6.9 mph - N/A   Clear
11:58 AM 20.7 °F 11.9 °F 5.4 °F 52% 30.26 in 10.0 mi West 6.9 mph - N/A   Clear
12:58 PM 21.0 °F 13.4 °F 5.2 °F 51% 30.26 in 10.0 mi West 5.8 mph - N/A   Partly Cloudy
1:58 PM 21.4 °F 11.9 °F 5.0 °F 49% 30.25 in 10.0 mi West 8.1 mph - N/A   Clear
2:58 PM 21.4 °F 11.9 °F 4.6 °F 49% 30.25 in 10.0 mi West 8.1 mph - N/A   Clear
3:58 PM 20.8 °F 13.2 °F 4.8 °F 50% 30.24 in 10.0 mi West 5.8 mph - N/A   Partly Cloudy
4:58 PM 20.7 °F - 4.6 °F 50% 30.22 in 10.0 mi Calm Calm - N/A   Clear
5:58 PM 19.8 °F - 4.1 °F 51% 30.22 in 10.0 mi Calm Calm - N/A   Clear
6:58 PM 14.0 °F - 4.6 °F 66% 30.22 in 10.0 mi Calm Calm - N/A   Clear
7:58 PM 11.7 °F - 3.4 °F 69% 30.20 in 10.0 mi Calm Calm - N/A   Clear
8:58 PM 8.4 °F - 1.6 °F 74% 30.20 in 10.0 mi Calm Calm - N/A   Clear
9:58 PM 8.1 °F - -0.0 °F 70% 30.19 in 10.0 mi Calm Calm - N/A   Clear
10:58 PM 14.5 °F 4.6 °F 1.4 °F 56% 30.17 in 10.0 mi NW 6.9 mph - N/A   Clear
11:58 PM 4.3 °F -4.9 °F -2.7 °F 73% 30.15 in 10.0 mi NE 4.6 mph - N/A   Clear